This demonstration page uses our WeatherBlox Daily Observations layout. Learn more.

Left ArrowRight Arrow

41.55636, -103.73856

Hourly Observations for February 24, 2015

Temp ( °F °C ) Dew Point ( °F °C ) Humidity (%) Winds ( mph kmh ) Pressure ( in mb ) Visibility ( mi km ) Precip ( " mm )
12:53 am 00:53 Clear 22 -5.6 11 -11.7 63 63 WNW 13 20 30.23 1024 10 16.0934 0 0
1:53 am 01:53 Clear 24 -4.4 10 -12.2 55 55 WNW 13 20 30.23 1024 10 16.0934 0 0
2:53 am 02:53 Clear 24 -4.4 12 -11.1 60 60 WNW 12 19 30.21 1023 10 16.0934 0 0
3:53 am 03:53 Clear 27 -2.8 13 -10.6 55 55 WNW 13 20 30.19 1022 10 16.0934 0 0
4:53 am 04:53 Clear 25 -3.9 14 -10 63 63 WNW 12 19 30.21 1023 10 16.0934 0 0
5:53 am 05:53 Clear 23 -5 14 -10 68 68 NW 3 6 30.23 1024 10 16.0934 0 0
6:53 am 06:53 Sunny 23 -5 15 -9.4 72 72 NW 6 9 30.24 1024 10 16.0934 0 0
7:53 am 07:53 Sunny 28 -2.2 16 -8.9 60 60 WNW 10 17 30.23 1024 10 16.0934 0 0
8:53 am 08:53 Sunny 33 0.6 15 -9.4 47 47 W 8 13 30.21 1023 10 16.0934 0 0
9:53 am 09:53 Sunny 39 3.9 17 -8.3 41 41 W 14 22 30.18 1022 10 16.0934 0 0
10:53 am 10:53 Sunny 44 6.7 17 -8.3 34 34 W 15 24 30.13 1020 10 16.0934 0 0
11:53 am 11:53 Sunny 49 9.4 19 -7.2 31 31 WNW 15 24 30.06 1018 10 16.0934 0 0
12:53 pm 12:53 Sunny 50 10 22 -5.6 33 33 WNW 18 30 30.01 1016 10 16.0934 0 0
1:53 pm 13:53 Sunny 51 10.6 23 -5 33 33 W 14 22 29.96 1015 10 16.0934 0 0
2:53 pm 14:53 Sunny 52 11.1 24 -4.4 34 34 W 15 24 29.93 1014 10 16.0934 0 0
3:53 pm 15:53 Sunny 51 10.6 23 -5 33 33 W 13 20 29.9 1013 10 16.0934 0 0
4:53 pm 16:53 Sunny 49 9.4 23 -5 36 36 W 13 20 29.89 1012 10 16.0934 0 0
5:53 pm 17:53 Clear 40 4.4 23 -5 51 51 W 8 13 29.91 1013 10 16.0934 0 0
6:53 pm 18:53 Clear 36 2.2 22 -5.6 57 57 WNW 6 9 29.91 1013 10 16.0934 0 0
7:53 pm 19:53 Clear 34 1.1 22 -5.6 61 61 Calm 29.87 1012 10 16.0934 0 0
8:53 pm 20:53 Clear 31 -0.6 21 -6.1 67 67 Calm 29.86 1011 10 16.0934 0 0
9:53 pm 21:53 Clear 28 -2.2 21 -6.1 75 75 Calm 29.83 1010 10 16.0934 0 0
10:53 pm 22:53 Mostly Clear 33 0.6 24 -4.4 70 70 NNW 5 7 29.78 1008 10 16.0934 0 0
11:53 pm 23:53 Mostly Clear 33 0.6 25 -3.9 72 72 NW 5 7 29.77 1008 10 16.0934 0 0

Powered by AerisWeather